SJ-12

导读

SJ-12(实践十二号)是中国自主研制的科学试验卫星,由中国航天科技集团上海航天技术研究院主导研制。于北京时间2010年6月15日,在酒泉卫星发射中心通过长征二号丁运载火箭成功发射入轨,这也是长征系列运载火箭第125次飞行任务。该卫星主要承担空间环境探测、星间测量与通信试验任务,为我国空间科学研究及航天技术验证积累了重要数据。

Basic Information
目录编号:
36596
目录名称:
SJ-12
国际标识:
2010-027A
轨道中心:
EARTH
卫星名称:
SJ-12
卫星全名:
--
卫星状态:
在轨 (已飞行5925 天)
发射日期:
2010-06-15 UTC
国别 :
中国 (CN)
星等 :
--
Orbit Information
数据来源 国际轨道数据 AOE轨道数据
星历时间 2026-09-04T14:38:30+0800
9小时前
查看轨道信息
2026-09-03T18:00:00+0800
1天前
查看轨道信息
半长轴 6892.014km 6892.035km
偏心率 0.0006634 0.0006422
轨道倾角 97.762° 97.759°
近地点辐角 169.062° 168.412°
升交点赤经 266.877° 265.998°
平近点角 191.076° 176.657°
近地点 509.304km 509.471km
远地点 518.45km 518.325km
周期 94.903分钟 94.903分钟
每日圈数 15.173424 15.173353
Detailed Information
使用方式:
暂无
2D Orbit Map
3D Orbit Map
Orbit Altitude Analysis Chart
Orbit Inclination Analysis Chart
Orbit Comprehensive Analysis Chart
View Comprehensive Chart
Conjunction Data List
Event ID Objects TCA Miss Dist (km) Collision Risk Probability Collision Risk Index (CRI) Action
CDM_260905-221303-659604-275821
SJ-12 (36596)
HXMT (42758)
2026-09-05T
22:13:52+0000
1.299 km
极远距离
1.066481E-5 中风险 0.56
CDM_260905-234803-659604-275821
SJ-12 (36596)
HXMT (42758)
2026-09-05T
23:48:43+0000
2.259 km
极远距离
2.102324E-6 低风险 0.41
CDM_260902-224103-659603-970829
SJ-12 (36596)
2026-09-02T
22:41:59+0000
2.712 km
极远距离
1.528243E-6 低风险 0.39